Weather Roundup
Issued by NWS Chicago, IL

Home | Current Version | Previous Version | Text Only | Print | Product List | Glossary On
Versions: 1 2 3 4 5 6 7 8 9 10 11 12 13 14 15 16 17 18 19 20 21 22 23 24 25 26 27 28 29 30 31 32 33 34 35 36 37 38 39 40 41 42 43 44 45 46 47 48 49 50
000
NZUS59 KLOT 290908
HRRLOT

CHICAGO AREA WEATHER ROUNDUP
NATIONAL WEATHER SERVICE CHICAGO/ROMEOVILLE IL
400 AM CDT SUN MAY 29 2016

NOTE: "FAIR" INDICATES FEW OR NO CLOUDS BELOW 12,000 FEET WITH NO
SIGNIFICANT WEATHER AND/OR OBSTRUCTIONS TO VISIBILITY.

* THESE STATIONS ARE NOT UNDER NWS QUALITY CONTROL. THEY ALSO MAY NOT
  REPORT WEATHER SUCH AS PRECIPITATION OR FOG.

ILZ005-006-012>014-019>023-291000-
NORTHEAST ILLINOIS

CITY           SKY/WX    TMP DP  RH WIND       PRES   REMARKS
OHARE          MOCLDY    64  61  90 SW5       29.95R
MIDWAY         MOCLDY    66  58  75 SW9       29.95S
AURORA         CLEAR     63  61  93 S7        29.96S
LANSING*       PTCLDY    63  57  80 SW6       29.97S
JOLIET*        CLEAR     65  62  92 S5        29.97S
WAUKEGAN       MOCLDY    62  61  96 SW7       29.93R
DUPAGE AIRPORT CLEAR     62  59  90 S6        29.95S
WHEELING       PTCLDY    65  61  87 SW6       29.96R
KANKAKEE*      CLOUDY    63  59  88 SW6       30.00R
MORRIS*        PTCLDY    64  62  93 SW5       29.96S
LEWIS AIRPORT* PTCLDY    63  59  86 SW7       29.97S
$$

WIZ051-052-058>065-066-070>072-291000-
SOUTHEAST WISCONSIN

CITY           SKY/WX    TMP DP  RH WIND       PRES   REMARKS
MILWAUKEE      PTCLDY    64  62  93 S8        29.91S
KENOSHA*       MOCLDY    63  61  93 SW6       29.93S
RACINE*        PTCLDY    64  61  90 SW8       29.93F
BURLINGTON     CLEAR     62  62  99 S6        29.92S
WAUKESHA       CLEAR     61  61 100 S3        29.92S
WEST BEND      PTCLDY    63  61  94 S5        29.89S
$$

INZ001>003-010>013-019-020-291000-
NORTHWEST INDIANA

CITY           SKY/WX    TMP DP  RH WIND       PRES   REMARKS
GARY*          MOCLDY    69  64  84 S5        29.97F
MICHIGAN CITY* NOT AVBL
RENSSELAER*    NOT AVBL
VALPARAISO     CLOUDY    62  55  77 CALM      29.99S
$$

LMZ740>746-291000-
SOUTHERN LAKE MICHIGAN

STATION/POSITION TIME  SKY/WX   TEMP WIND        PRES    VSBY
                                AIR  DIR/SP/G
                 (UTC)          (F)  (DEG/KT/KT) (MB)    (MI)
HARRISON CRIB    0800            69  210/ 16/ 17   N/A
BURNHAM HARBOR   0900            67  190/  3/  8   N/A
CALUMET HARBOR   0800            66  190/  8/ 12 1014.0R
BURNS HARBOR     0800            68  180/  7/ 13 1014.9S
MICHIGAN CITY    0800            69  180/ 13/ 14   N/A
$$

ABBREVIATIONS USED IN REMARKS
   TC - TEMPERATURE IN CELSIUS
  WCI - WIND CHILL INDEX
   HX - HEAT INDEX
  VSB - VISIBILITY
$$



USA.gov is the U.S. government's official web portal to all federal, state and local government web resources and services.